Home   Weather   Barnaul   Past weeks

Flag for Russia Past Weather in Barnaul, Russia — Yesterday and Last 2 Weeks

Now
12 °F

Low level haze.


Feels Like: -3 °F
Forecast: 7 / 19 °F
Wind: 13 mph from West

Location: Barnaul Airport

Current Time: Dec 7, 2016 at 1:12:09 am

Latest Report: Dec 7, 2016 at 12:30 am


Visibility: N/A

Pressure: 30.24 "Hg

Humidity: 85%

Dew Point: 9 °F

Location of BarnaulLocation

Past Weather in Barnaul — Graph

°F

Barnaul Temperature Yesterday

Maximum temperature yesterday: 27 °F (at 5:30 pm)
Minimum temperature yesterday: 12 °F (at 5:30 am)
Average temperature yesterday: 18 °F

High & Low Weather Summary for the Past Weeks

 TemperatureHumidityPressure
High36 °F (Dec 4, 9:30 pm)93% (Nov 24, 10:30 am)31.04 "Hg (Nov 24, 10:30 am)
Low-20 °F (Nov 22, 8:00 am)43% (Dec 1, 12:30 pm)29.80 "Hg (Dec 4, 6:30 pm)
Average16 °F74%30.19 "Hg
* Reported Nov 22 12:00 am — Dec 7 12:00 am, Barnaul, Weather by CustomWeather, © 2016

Note: Actual official high and low records may vary slightly from our data, if they occured in-between our weather recording intervals... More about our weather records

Advertising

Barnaul Weather History for the Previous 24 Hours

Scroll right to see more
 ConditionsComfort  
Time TempWeatherWind HumidityBarometerVisibility
12:00 am
Wed, Dec 7
14 °FLow level haze.15 mph85%30.24 "HgN/A
11:30 pm
Tue, Dec 6
14 °FLow level haze.15 mph79%30.21 "HgN/A
11:00 pm14 °FLow level haze.15 mph85%30.18 "HgN/A
10:30 pm14 °FLow level haze.15 mph85%30.18 "HgN/A
10:00 pm16 °FLow level haze.17 mph86%30.15 "HgN/A
9:30 pm18 °FPassing clouds.20 mph79%30.12 "HgN/A
9:00 pm18 °FLight snow. Passing clouds.20 mph86%30.09 "HgN/A
8:30 pm18 °FLight snow. Passing clouds.20 mph86%30.07 "HgN/A
8:00 pm19 °FLight snow. Partly cloudy.20 mph86%30.04 "HgN/A
7:30 pm21 °FLight snow. Partly cloudy.24 mph86%30.01 "HgN/A
7:00 pm23 °FLight snow. Partly cloudy.22 mph93%29.98 "Hg2 mi
6:30 pm25 °FSnow. Partly cloudy.29 mph86%29.92 "Hg1 mi
6:00 pm27 °FLight snow. Partly cloudy.24 mph80%29.89 "HgN/A
5:30 pm27 °FLight snow. Partly cloudy.22 mph86%29.89 "Hg4 mi
5:00 pm25 °FBroken clouds.17 mph93%29.86 "HgN/A
4:30 pm25 °FLight snow. Broken clouds.15 mph86%29.86 "HgN/A
4:00 pm23 °FLight snow. Broken clouds.15 mph93%29.86 "HgN/A
3:30 pm23 °FLight snow. Partly sunny.15 mph93%29.86 "Hg2 mi
3:00 pm23 °FLight snow. Broken clouds.13 mph80%29.89 "Hg1 mi
2:30 pm23 °FBroken clouds.10 mph68%29.89 "HgN/A
2:00 pm23 °FLight snow. Partly sunny.13 mph68%29.92 "HgN/A
1:30 pm19 °FLight snow. Partly sunny.10 mph79%29.92 "HgN/A
1:00 pm19 °FPartly sunny.13 mph79%29.95 "HgN/A
12:30 pm19 °FScattered clouds.13 mph79%29.98 "HgN/A
12:00 pm19 °FScattered clouds.10 mph79%30.01 "HgN/A
11:30 am18 °FPassing clouds.8 mph79%30.04 "HgN/A
11:00 am16 °FPassing clouds.8 mph86%30.07 "HgN/A
10:30 am16 °FPassing clouds.8 mph79%30.07 "HgN/A
10:00 am16 °FPassing clouds.8 mph79%30.09 "HgN/A
9:30 am14 °FPassing clouds.6 mph85%30.09 "HgN/A
9:00 am14 °FPassing clouds.6 mph85%30.12 "HgN/A
8:30 am12 °FClear.8 mph85%30.15 "Hg10 mi
8:00 am12 °FClear.8 mph85%30.18 "Hg10 mi
7:30 am12 °FClear.8 mph85%30.18 "Hg10 mi
7:00 am12 °FClear.10 mph85%30.18 "Hg10 mi
6:30 am12 °FClear.10 mph85%30.21 "Hg10 mi
6:00 am12 °FClear.10 mph85%30.21 "Hg10 mi
5:30 am12 °FClear.8 mph85%30.21 "Hg10 mi
5:00 am14 °FClear.8 mph79%30.24 "Hg10 mi
4:30 am14 °FClear.6 mph79%30.24 "Hg10 mi
4:00 am16 °FClear.8 mph73%30.24 "Hg10 mi
3:30 am16 °FClear.8 mph73%30.24 "Hg10 mi
3:00 am16 °FClear.10 mph73%30.24 "Hg10 mi
2:30 am16 °FPassing clouds.15 mph73%30.24 "HgN/A
2:00 am16 °FPassing clouds.15 mph73%30.24 "HgN/A
1:30 am18 °FPassing clouds.15 mph68%30.24 "HgN/A
1:00 am18 °FLight snow. Partly cloudy.20 mph73%30.24 "HgN/A
Weather by CustomWeather, © 2016

See weather overviewHow to use our weather pages